Bellingham, WA
on Tuesday, November 20, 2012

Tuesday
Previous Day Next Day
Daily Summary
 ActualAverageRecord
Temperature
Mean Temperature °F / °C 42°F / 6°C  
Max Temperature 54°F / 12°C 49°F / 9°C 62°F / 16°C (2002)
Min Temperature 43°F / 6°C 36°F / 2°C 20°F / -6°C (1977)
Degree Days
Heating Degree Days 16 23  
Month to date heating degree days 413  
Cooling Degree Days 0 0  
Month to date cooling degree days 0  
Year to date cooling degree days 42  
Moisture
Dew Point 42°F / 6°C   
Average Humidity 80    
Maximum Humidity 93    
Minimum Humidity 64    
Precipitation
Precipitation 0.00 in / 0.00 cm 0.19 in / 4.83 cm 0.92 in / 2.34 cm (1998)
Month to date precipitation 3.94  
Year to date precipitation 29.75  
Wind
Wind Speed 7 mph / 11 km/h   
Max Wind Speed 24 mph / 39 km/h   
Max Gust Speed 36 mph / 58 km/h   
Visibility 10 miles / 16 kilometers   
Events Rain   

Key: T is trace of precipitation, MM is missing value
Source: NWS Daily Summary
Time(PST)TemperatureDew PointHumidity Pressure Visibility Wind DirectionWind SpeedGust SpeedPrecipitationEvents Conditions
12:15 AM 48.2°F / 9.0°C 44.6°F / 7.0°C 87% 29.65 in / 1003.9 hPa 10.0 miles / 16.1 kilometers ESE 4.6 mph / 7.4 km/h - N/A   Overcast
12:53 AM 48.0°F / 8.9°C 44.1°F / 6.7°C 86% 29.68 in / 1004.8 hPa 10.0 miles / 16.1 kilometers Calm Calm - 0.00 in / 0.0 cm   Mostly Cloudy
1:06 AM 46.4°F / 8.0°C 44.6°F / 7.0°C 93% 29.65 in / 1003.9 hPa 10.0 miles / 16.1 kilometers Calm Calm - N/A   Mostly Cloudy
1:33 AM 46.4°F / 8.0°C 44.6°F / 7.0°C 93% 29.65 in / 1003.9 hPa 10.0 miles / 16.1 kilometers Variable 3.5 mph / 5.6 km/h - N/A   Overcast
1:41 AM 48.2°F / 9.0°C 44.6°F / 7.0°C 87% 29.65 in / 1003.9 hPa 10.0 miles / 16.1 kilometers Calm Calm - N/A   Overcast
1:53 AM 46.9°F / 8.3°C 44.1°F / 6.7°C 90% 29.68 in / 1005.0 hPa 10.0 miles / 16.1 kilometers Calm Calm - N/A   Overcast
2:53 AM 51.1°F / 10.6°C 43.0°F / 6.1°C 74% 29.69 in / 1005.2 hPa 10.0 miles / 16.1 kilometers Variable 6.9 mph / 11.1 km/h - N/A   Overcast
3:53 AM 51.1°F / 10.6°C 43.0°F / 6.1°C 74% 29.67 in / 1004.7 hPa 10.0 miles / 16.1 kilometers Variable 4.6 mph / 7.4 km/h - N/A   Overcast
4:53 AM 46.0°F / 7.8°C 43.0°F / 6.1°C 89% 29.67 in / 1004.5 hPa 10.0 miles / 16.1 kilometers NNE 9.2 mph / 14.8 km/h - N/A   Overcast
5:24 AM 46.4°F / 8.0°C 42.8°F / 6.0°C 87% 29.63 in / 1003.3 hPa 10.0 miles / 16.1 kilometers NNE 9.2 mph / 14.8 km/h - N/A   Overcast
5:45 AM 44.6°F / 7.0°C 42.8°F / 6.0°C 93% 29.64 in / 1003.6 hPa 10.0 miles / 16.1 kilometers Calm Calm - N/A   Mostly Cloudy
5:53 AM 45.0°F / 7.2°C 42.1°F / 5.6°C 90% 29.67 in / 1004.5 hPa 10.0 miles / 16.1 kilometers North 4.6 mph / 7.4 km/h - N/A   Mostly Cloudy
6:53 AM 43.0°F / 6.1°C 41.0°F / 5.0°C 93% 29.64 in / 1003.6 hPa 10.0 miles / 16.1 kilometers NNE 6.9 mph / 11.1 km/h - N/A   Mostly Cloudy
7:53 AM 45.0°F / 7.2°C 42.1°F / 5.6°C 90% 29.61 in / 1002.7 hPa 10.0 miles / 16.1 kilometers NNE 4.6 mph / 7.4 km/h - N/A   Overcast
8:53 AM 46.9°F / 8.3°C 43.0°F / 6.1°C 86% 29.59 in / 1001.8 hPa 10.0 miles / 16.1 kilometers NNE 8.1 mph / 13.0 km/h - 0.00 in / 0.0 cm   Mostly Cloudy
9:53 AM 48.0°F / 8.9°C 43.0°F / 6.1°C 83% 29.55 in / 1000.7 hPa 10.0 miles / 16.1 kilometers ENE 4.6 mph / 7.4 km/h - N/A   Partly Cloudy
10:53 AM 46.4°F / 8.0°C 42.8°F / 6.0°C 87% 29.49 in / 998.5 hPa 10.0 miles / 16.1 kilometers NNE 8.1 mph / 13.0 km/h - N/A   Partly Cloudy
11:53 AM 48.0°F / 8.9°C 42.1°F / 5.6°C 80% 29.50 in / 998.9 hPa 10.0 miles / 16.1 kilometers NNE 5.8 mph / 9.3 km/h - N/A   Overcast
12:53 PM 54.0°F / 12.2°C 42.1°F / 5.6°C 64% 29.50 in / 999.0 hPa 10.0 miles / 16.1 kilometers SE 15.0 mph / 24.1 km/h 21.9 mph / 35.2 km/h N/A   Overcast
1:53 PM 50.0°F / 10.0°C 43.0°F / 6.1°C 77% 29.52 in / 999.4 hPa 10.0 miles / 16.1 kilometers SE 19.6 mph / 31.5 km/h 25.3 mph / 40.7 km/h 0.00 in / 0.0 cm   Overcast
2:53 PM 53.1°F / 11.7°C 43.0°F / 6.1°C 69% 29.52 in / 999.4 hPa 10.0 miles / 16.1 kilometers SSE 23.0 mph / 37.0 km/h 35.7 mph / 57.4 km/h 0.00 in / 0.0 cm   Partly Cloudy
3:53 PM 52.0°F / 11.1°C 42.1°F / 5.6°C 69% 29.57 in / 1001.2 hPa 10.0 miles / 16.1 kilometers SSE 24.2 mph / 38.9 km/h 35.7 mph / 57.4 km/h N/A   Partly Cloudy
4:53 PM 51.1°F / 10.6°C 41.0°F / 5.0°C 68% 29.60 in / 1002.3 hPa 10.0 miles / 16.1 kilometers SSE 23.0 mph / 37.0 km/h 31.1 mph / 50.0 km/h N/A   Mostly Cloudy
4:57 PM 51.8°F / 11.0°C 41.0°F / 5.0°C 67% 29.58 in / 1001.6 hPa 10.0 miles / 16.1 kilometers SSE 21.9 mph / 35.2 km/h 32.2 mph / 51.9 km/h N/A   Mostly Cloudy
5:05 PM 51.8°F / 11.0°C 41.0°F / 5.0°C 67% 29.58 in / 1001.6 hPa 10.0 miles / 16.1 kilometers SSE 17.3 mph / 27.8 km/h 32.2 mph / 51.9 km/h N/A   Overcast
5:50 PM 51.8°F / 11.0°C 41.0°F / 5.0°C 67% 29.58 in / 1001.6 hPa 10.0 miles / 16.1 kilometers SSE 18.4 mph / 29.6 km/h 28.8 mph / 46.3 km/h N/A   Overcast
5:53 PM 51.1°F / 10.6°C 41.0°F / 5.0°C 68% 29.60 in / 1002.4 hPa 10.0 miles / 16.1 kilometers SSE 15.0 mph / 24.1 km/h 28.8 mph / 46.3 km/h N/A   Overcast
6:53 PM 51.1°F / 10.6°C 39.9°F / 4.4°C 66% 29.60 in / 1002.1 hPa 10.0 miles / 16.1 kilometers SSE 23.0 mph / 37.0 km/h 35.7 mph / 57.4 km/h N/A   Overcast
7:38 PM 48.2°F / 9.0°C 44.6°F / 7.0°C 87% 29.61 in / 1002.6 hPa 10.0 miles / 16.1 kilometers South 11.5 mph / 18.5 km/h 23.0 mph / 37.0 km/h 0.00 in / 0.0 cm Rain Light Rain
7:50 PM 48.2°F / 9.0°C 44.6°F / 7.0°C 87% 29.61 in / 1002.6 hPa 10.0 miles / 16.1 kilometers South 10.4 mph / 16.7 km/h - 0.00 in / 0.0 cm   Overcast
7:53 PM 48.0°F / 8.9°C 44.1°F / 6.7°C 86% 29.63 in / 1003.2 hPa 10.0 miles / 16.1 kilometers South 9.2 mph / 14.8 km/h - 0.00 in / 0.0 cm   Overcast
8:53 PM 48.9°F / 9.4°C 42.1°F / 5.6°C 77% 29.64 in / 1003.6 hPa 10.0 miles / 16.1 kilometers South 10.4 mph / 16.7 km/h 19.6 mph / 31.5 km/h N/A   Overcast
9:07 PM 48.2°F / 9.0°C 42.8°F / 6.0°C 82% 29.62 in / 1002.9 hPa 10.0 miles / 16.1 kilometers South 6.9 mph / 11.1 km/h - N/A   Overcast
9:53 PM 48.9°F / 9.4°C 39.9°F / 4.4°C 71% 29.64 in / 1003.7 hPa 10.0 miles / 16.1 kilometers South 9.2 mph / 14.8 km/h 19.6 mph / 31.5 km/h N/A   Overcast
10:53 PM 48.9°F / 9.4°C 39.9°F / 4.4°C 71% 29.63 in / 1003.4 hPa 10.0 miles / 16.1 kilometers SSE 11.5 mph / 18.5 km/h 21.9 mph / 35.2 km/h N/A   Overcast
11:24 PM 50.0°F / 10.0°C 39.2°F / 4.0°C 66% 29.60 in / 1002.3 hPa 10.0 miles / 16.1 kilometers SSE 15.0 mph / 24.1 km/h 19.6 mph / 31.5 km/h N/A   Overcast
11:53 PM 48.0°F / 8.9°C 39.9°F / 4.4°C 74% 29.61 in / 1002.7 hPa 10.0 miles / 16.1 kilometers ENE 4.6 mph / 7.4 km/h - N/A   Overcast
Moon Phase
Nov. 20 Nov. 28 Dec. 06 Dec. 13 Dec. 20
Sunrise:07:27 AM (PST) Moon Rise:12:46 PM (PST)11/20
Sunset:04:23 PM (PST) Moon Set:No Moon Set/

Copyright © 2014 The Weather Underground, Inc.